Location: Pl�tzky
(52.0521°N, 11.8020°E)
Time: 09:34:29
(UTC+00:00)

Cosmos 1633 Rocket - Pass Details

Date: 22 November 2019
Orbit: 608 x 622 km, 82.5° (Epoch: 10 December)

Event Time Altitude Azimuth Distance (km) Brightness Sun altitude
Rises 16:23:27 0° 349° (N) 2,909 6.4 -10.5°
Reaches altitude 10° 16:25:41 10° 350° (N) 2,000 5.6 -10.9°
Maximum altitude 16:30:08 84° 79° (E) 632 3.0 -11.5°
Drops below altitude 10° 16:34:33 10° 169° (SSE) 1,989 5.7 -12.2°
Sets 16:36:46 0° 170° (S) 2,892 6.6 -12.5°
